Regional Weather Roundup
Issued by NWS

Home | Current Version | Previous Version | Graphics & Text | Print | Product List | Glossary On
Versions: 1 2 3 4 5 6 7 8 9 10 11 12 13 14 15 16 17 18 19 20 21 22 23 24 25 26 27 28 29 30 31 32 33 34 35 36 37 38 39 40 41 42 43 44 45 46 47 48 49 50
000
ASUS43 KFSD 070002
RWRSD

WEATHER ROUNDUP FOR SOUTH DAKOTA
NATIONAL WEATHER SERVICE SIOUX FALLS SD
700 PM CDT FRI MAY 06 2016

NOTE: "FAIR" INDICATES FEW OR NO CLOUDS BELOW 12,000 FEET WITH NO
SIGNIFICANT WEATHER AND/OR OBSTRUCTIONS TO VISIBILITY.


SDZ001>005-009-010-012>017-070100-
NORTHWEST AND NORTH CENTRAL SOUTH DAKOTA

CITY           SKY/WX    TMP DP  RH WIND       PRES   REMARKS
BUFFALO          N/A     67  47  48 N24       29.98R
FAITH            N/A     71  46  40 NE21      29.95R
MOBRIDGE       CLOUDY    75  46  35 N16       29.91R
$$

SDZ012>016-024>037-041>051-057-063-072>074-070100-
SOUTHWEST AND SOUTH CENTRAL SOUTH DAKOTA

CITY           SKY/WX    TMP DP  RH WIND       PRES   REMARKS
RAPID CTY ARPT MOSUNNY   69  48  47 N20G26    30.00R
PIERRE         CLOUDY    77  49  37 NE24G33   29.86R
CUSTER         CLOUDY    61  43  51 NE20G26   30.09R
PHILIP         PTSUNNY   74  52  46 NE16      29.90R
PINE RIDGE     CLOUDY    74  52  46 NE20      29.91R
WINNER         FAIR      80  60  50 N13       29.82R
$$

SDZ004>011-016>023-039-040-070100-
NORTHEAST SOUTH DAKOTA

CITY           SKY/WX    TMP DP  RH WIND       PRES   REMARKS
ABERDEEN       CLOUDY    78  44  29 N24G31    29.87R
WATERTOWN      CLOUDY    73  46  38 N13G22    29.86R THUNDER
BROOKINGS      CLOUDY    77  49  37 N16G29    29.81R
SISSETON         N/A     76  42  29 NE25G32   29.83R
$$

SDZ017-020-022-023-036>040-048>070-070100-
SOUTHEAST SOUTH DAKOTA

CITY           SKY/WX    TMP DP  RH WIND       PRES   REMARKS
SIOUX FALLS    PTSUNNY   85  52  32 W8        29.79S
HURON          SUNNY     79  49  34 NE23G37   29.79R
MITCHELL       CLOUDY    84  57  39 NW7       29.78S
YANKTON        CLOUDY    82  52  34 W9        29.79S
$$

ABBREVIATIONS USED IN REMARKS
   TC - TEMPERATURE IN CELSIUS
  WCI - WIND CHILL INDEX
   HX - HEAT INDEX
  VSB - VISIBILITY




USA.gov is the U.S. government's official web portal to all federal, state and local government web resources and services.